Regional Weather Roundup
Issued by NWS

Home | Current Version | Previous Version | Text Only | Print | Product List | Glossary On
Versions: 1 2 3 4 5 6 7 8 9 10 11 12 13 14 15 16 17 18 19 20 21 22 23 24 25 26 27 28 29 30 31 32 33 34 35 36 37 38 39 40 41 42 43 44 45 46 47 48 49 50
000
ASUS43 KDTX 050110
RWRMI
MICHIGAN HOURLY REGIONAL WEATHER ROUNDUP
NATIONAL WEATHER SERVICE DETROIT/PONTIAC MI
800 PM EST SUN DEC 04 2016

NOTE: "FAIR" INDICATES FEW OR NO CLOUDS BELOW 12,000 FEET WITH NO
SIGNIFICANT WEATHER AND/OR OBSTRUCTION TO VISIBILITY.

MIZ047>049-052>055-059>063-066>070-074>076-081>083-050200-
SOUTHEAST LOWER MICHIGAN

CITY           SKY/WX    TMP DP  RH WIND       PRES   REMARKS
ADRIAN         LGT SNOW  32  32 100 SE8       29.85F FOG     WCI  25
ALMA           LGT SNOW  32  32  99 SE8       29.85F WCI  25
ANN ARBOR      LGT SNOW  33  32  96 E9        29.84F VSB 3/4 WCI  25
BAD AXE        CLOUDY    34  32  94 SE6       29.88F WCI  29
CARO           LGT SNOW  33  32  97 SE7       29.86F WCI  26
DETROIT CITY   LGT RAIN  36  34  92 SE10      29.89F WCI  28
DETROIT        LGT SNOW  33  32  96 E7        29.87F VSB 3/4 WCI  27
FLINT          LGT SNOW  33  32  96 E6        29.86F FOG     WCI  28
GROSSE ILE     LGT SNOW  35  33  93 SE9       29.87F WCI  27
HILLSDALE      LGT SNOW  32  32 100 SE10      29.83S WCI  24
HOWELL         LGT SNOW  33  32  97 SE8       29.84F VSB 3/4 WCI  25

CITY           SKY/WX    TMP DP  RH WIND       PRES   REMARKS
JACKSON        LGT SNOW  33  31  92 SE10      29.84F VSB 3/4 WCI  25
LAMBERTVILLE   LGT SNOW  34  32  93 SE9       29.86F WCI  26
LANSING        LGT SNOW  33  30  88 SE9       29.84F VSB 3/4 WCI  25
LAPEER         NOT AVBL
MASON          LGT SNOW  32  32 100 SE8       29.84F WCI  25
MONROE         LGT SNOW  33  33  99 SE9       29.86F WCI  26
MT. CLEMENS    LGT RAIN  38  34  86 E15       29.87F WCI  29
PONTIAC        LGT SNOW  33  30  88 E9        29.84F VSB 1   WCI  25
PORT HOPE        N/A     36  34  92 SE12G20   29.87F WCI  28
PORT HURON     MIX PCPN  36  32  87 E5        29.91F WCI  32
TRI CITIES     LGT SNOW  33  33 100 SE10      29.86F VSB 3/4 WCI  25
MIDLAND        LGT SNOW  33  32  95 SE9       29.86F WCI  26
TROY           LGT SNOW  36  32  86 E7        29.88F WCI  30
SAGINAW HB     LGT SNOW  32  32 100 SE7       29.86F WCI  26
$$
MIZ043>046-050>051-056>058-064>065-071>073-077>080-050200-
SOUTHWEST LOWER MICHIGAN

CITY           SKY/WX    TMP DP  RH WIND       PRES   REMARKS
BATTLE CREEK   LGT SNOW  33  33 100 S7        29.85S VSB 1   WCI  27
BIG RAPIDS     LGT SNOW  33  31  92 CALM      29.87R VSB 1
COLDWATER      LGT SNOW  33  32  97 SE8       29.84S WCI  26
FREMONT        LGT SNOW  32  31  96 CALM      29.89S VSB 3/4
HOLLAND        LGT SNOW  33  32  96 NW3       29.89F FOG
GRAND RAPIDS   SNOW      33  31  92 W7        29.89R VSB 1/2 WCI  27
IONIA          LGT SNOW  32  31  98 SE7       29.84F WCI  26
KALAMAZOO      LGT SNOW  33  31  92 S3        29.86S FOG
LUDINGTON      LGT SNOW  32  32 100 CALM      29.86F
MARSHALL       LGT SNOW  33  32  98 SE7       29.84F WCI  26
MOUNT PLEASANT LGT SNOW  32  32  99 SE5       29.85S WCI  28
MUSKEGON       LGT SNOW  33  32  96 SE5       29.89F VSB 1   WCI  29
SOUTH HAVEN    LGT SNOW  34  34  99 CALM      29.88F
$$
MIZ016>042-050200-
NORTHERN LOWER MICHIGAN

CITY           SKY/WX    TMP DP  RH WIND       PRES   REMARKS
ALPENA         LGT SNOW  33  31  92 SE5       29.89F FOG     WCI  29
BEAVER ISLAND  LGT SNOW  32  32  99 SE5       29.86F WCI  28
BELLAIRE       LGT SNOW  32  31  99 CALM      29.88F
CADILLAC       LGT SNOW  30  29  96 CALM      29.84S VSB 1
CHARLEVOIX     LGT SNOW  32  32 100 CALM      29.89F
FRANKFORT      LGT SNOW  32  32 100 CALM      29.86F
GAYLORD        LGT SNOW  30  27  88 CALM      29.84F FOG
GRAYLING       LGT SNOW  31  31  99 CALM      29.86F VSB 1
HARBOR SPRINGS LGT SNOW  31  31  99 CALM      29.88F
HOUGHTON LAKE  LGT SNOW  31  30  96 S3        29.85F FOG
MANISTEE       LGT SNOW  32  31  96 CALM      29.87F FOG
OSCODA         LGT SNOW  34  33  94 SE9       29.87F WCI  27
PELLSTON       LGT SNOW  32  29  88 SE7       29.88F FOG     WCI  26
ROGERS CITY    LGT SNOW  33  32  96 CALM      29.90F VSB 1
TRAVERSE CITY  LGT SNOW  33  32  96 CALM      29.86F VSB 1
$$
MIZ007>008-015-050200-
EASTERN UPPER MICHIGAN

CITY           SKY/WX    TMP DP  RH WIND       PRES   REMARKS
KINROSS        LGT SNOW  32  31  96 S5        29.89F FOG     WCI  27
MACKINAC ISLAN LGT SNOW  32  32 100 SE3       29.88F
NEWBERRY       LGT SNOW  32  31  97 SE9       29.84F WCI  24
S. S. MARIE    LGT SNOW  31  30  96 E6        29.88F VSB 3/4 WCI  25
MUNISING         N/A     32  31  96 CALM      29.82F
$$
MIZ004>006-011>014-085-050200-
CENTRAL UPPER MICHIGAN

CITY           SKY/WX    TMP DP  RH WIND       PRES   REMARKS
MANISTIQUE     LGT SNOW  34  32  92 S12G21    29.83F WCI  26
ESCANABA       LGT SNOW  32  31  96 CALM      29.82F FOG
MENOMINEE      LGT SNOW  32  31  96 S3        29.83  FOG
SAWYER-GWINN   LGT SNOW  28  28 100 S7        29.79F WCI  21
$$
MIZ001>003-009>011-084-050200-
WESTERN UPPER MICHIGAN

CITY           SKY/WX    TMP DP  RH WIND       PRES   REMARKS
IRON MOUNTAIN  LGT SNOW  30  26  85 SE6       29.76F FOG     WCI  24
HOUGHTON       LGT SNOW  30  28  92 S5        29.74F FOG     WCI  25
COPPER HARBOR    N/A     33  31  92 SW9       29.76F WCI  25
IRONWOOD       CLOUDY    31  28  89 S7        29.71F WCI  24
$$

ABBREVIATIONS USED IN REMARKS
   TC - TEMPERATURE IN CELSIUS
  WCI - WIND CHILL INDEX
   HX - HEAT INDEX
  VSB - VISIBILITY




USA.gov is the U.S. government's official web portal to all federal, state and local government web resources and services.